DW0465 Weather Reports


Display with metric or nautical units.
time (UTC)temp
F
wind
direction
speed
MPH
gust
MPH
rain 1hr
in
rain 24hr
in
rain mn
in
humidity
%
barometer
mb
20260905181536 74 78 0.0 4.0 0.00 0.00 0.00 30 1007.2
20260905180033 73 360 0.0 3.0 0.00 0.00 0.00 31 1007.4
20260905174535 72 40 0.0 2.0 0.00 0.00 0.00 32 1007.6
20260905173035 72 18 0.0 9.0 0.00 0.00 0.00 32 1007.6
20260905171523 72 55 0.0 1.0 0.00 0.00 0.00 32 1007.6
20260905170018 71 18 0.0 1.0 0.00 0.00 0.00 34 1007.6
20260905164515 70 63 0.0 0.0 0.00 0.00 0.00 33 1007.7
20260905163009 69 348 0.0 0.0 0.00 0.00 0.00 35 1007.6
20260905161505 68 30 0.0 0.0 0.00 0.00 0.00 36 1007.5
20260905160101 67 32 0.0 0.0 0.00 0.00 0.00 41 1007.6
20260905154556 66 56 0.0 0.0 0.00 0.00 0.00 38 1007.7
20260905153054 65 318 0.0 0.0 0.00 0.00 0.00 38 1007.8
20260905151548 63 243 0.0 0.0 0.00 0.00 0.00 40 1007.9
20260905150043 62 243 0.0 0.0 0.00 0.00 0.00 42 1008.0
20260905144543 60 205 0.0 0.0 0.00 0.00 0.00 43 1008.1
20260905143035 58 208 0.0 0.0 0.00 0.00 0.00 47 1008.0
20260905141531 55 229 0.0 0.0 0.00 0.00 0.00 48 1007.8
20260905140026 52 219 0.0 0.0 0.00 0.00 0.00 55 1008.0
20260905134524 50 217 0.0 1.0 0.00 0.00 0.00 56 1008.0
20260905133021 49 198 0.0 0.0 0.00 0.00 0.00 56 1007.8
20260905131540 49 202 0.0 1.0 0.00 0.00 0.00 56 1007.6
20260905130019 49 213 0.0 0.0 0.00 0.00 0.00 58 1007.3
20260905124534 49 211 0.0 0.0 0.00 0.00 0.00 56 1007.2
20260905123013 49 210 0.0 2.0 0.00 0.00 0.00 55 1007.1
20260905121521 50 214 0.0 2.0 0.00 0.00 0.00 54 1007.0
20260905120010 51 208 0.0 0.0 0.00 0.00 0.00 52 1006.9
20260905114519 51 227 0.0 0.0 0.00 0.00 0.00 51 1006.8
20260905113007 51 209 0.0 1.0 0.00 0.00 0.00 52 1006.8
20260905111504 51 219 0.0 0.0 0.00 0.00 0.00 51 1006.7
20260905110001 52 217 0.0 2.0 0.00 0.00 0.00 50 1006.6
20260905104600 52 209 0.0 0.0 0.00 0.00 0.00 50 1006.4
20260905103100 53 203 0.0 0.0 0.00 0.00 0.00 49 1006.6
20260905101622 53 185 0.0 1.0 0.00 0.00 0.00 50 1006.7
20260905100056 53 200 0.0 2.0 0.00 0.00 0.00 49 1006.6
20260905094554 53 229 0.0 0.0 0.00 0.00 0.00 49 1006.3
20260905093052 53 190 0.0 0.0 0.00 0.00 0.00 49 1006.2
20260905091549 54 194 0.0 0.0 0.00 0.00 0.00 47 1006.1
20260905090046 55 220 0.0 1.0 0.00 0.00 0.00 46 1006.2
20260905084600 56 205 0.0 0.0 0.00 0.00 0.00 45 1006.2
20260905083042 56 216 0.0 3.0 0.00 0.00 0.00 44 1006.2
20260905081540 57 224 0.0 1.0 0.00 0.00 0.00 44 1006.0
20260905080038 57 225 0.0 1.0 0.00 0.00 0.00 43 1006.0
20260905074536 58 196 0.0 1.0 0.00 0.00 0.00 43 1006.2
20260905073037 59 217 0.0 1.0 0.00 0.00 0.00 41 1006.0
20260905071534 59 232 0.0 6.0 0.00 0.00 0.00 41 1006.1
20260905070032 59 217 0.0 0.0 0.00 0.00 0.00 40 1005.9
20260905064532 59 213 0.0 0.0 0.00 0.00 0.00 39 1005.5
20260905063029 59 212 0.0 0.0 0.00 0.00 0.00 39 1005.6
20260905061527 58 196 0.0 4.0 0.00 0.00 0.00 39 1005.6
20260905060028 58 208 0.0 2.0 0.00 0.00 0.00 40 1005.6
20260905054524 57 204 0.0 0.0 0.00 0.00 0.00 42 1005.6
20260905053022 57 153 0.0 2.0 0.00 0.00 0.00 42 1005.6
20260905051532 58 35 0.0 4.0 0.00 0.00 0.00 41 1005.6
20260905050017 59 188 0.0 1.0 0.00 0.00 0.00 36 1004.8
20260905044517 60 211 0.0 0.0 0.00 0.00 0.00 36 1004.6
20260905043016 60 189 0.0 0.0 0.00 0.00 0.00 36 1004.6
20260905041517 61 230 0.0 0.0 0.00 0.00 0.00 37 1004.5
20260905040014 62 223 0.0 1.0 0.00 0.00 0.00 34 1004.6
20260905034521 63 207 0.0 0.0 0.00 0.00 0.00 33 1004.4
20260905033011 63 205 0.0 0.0 0.00 0.00 0.00 43 1004.2
20260905031513 67 211 0.0 0.0 0.00 0.00 0.00 31 1004.0
20260905030022 70 185 0.0 0.0 0.00 0.00 0.00 23 1003.7
20260905024510 72 187 0.0 0.0 0.00 0.00 0.00 22 1003.6
20260905023023 73 183 0.0 0.0 0.00 0.00 0.00 20 1003.3
20260905021511 74 181 0.0 0.0 0.00 0.00 0.00 21 1003.0
20260905020007 75 178 0.0 1.0 0.00 0.00 0.00 21 1002.8
20260905014508 76 225 0.0 0.0 0.00 0.00 0.00 20 1002.6
20260905013005 78 210 0.0 0.0 0.00 0.00 0.00 20 1002.4
20260905011505 80 215 0.0 2.0 0.00 0.00 0.00 17 1002.3
20260905010004 82 240 0.0 1.0 0.00 0.00 0.00 17 1002.1
20260905004504 83 248 0.0 3.0 0.00 0.00 0.00 16 1002.0
20260905003004 83 200 0.0 0.0 0.00 0.00 0.00 16 1001.9
20260905001504 83 264 0.0 3.0 0.00 0.00 0.00 14 1001.8
20260905000003 83 257 0.0 2.0 0.00 0.00 0.00 16 1001.7
20260904234504 84 243 0.0 1.0 0.00 0.00 0.00 15 1001.7
20260904233003 84 259 0.0 2.0 0.00 0.00 0.00 16 1001.6
20260904231501 84 196 0.0 4.0 0.00 0.00 0.00 15 1001.5
20260904224600 84 301 0.0 3.0 0.00 0.00 0.00 15 1001.6
20260904223107 84 281 0.0 2.0 0.00 0.00 0.00 15 1001.6
20260904221607 84 239 0.0 1.0 0.00 0.00 0.00 15 1001.6
20260904220159 85 244 0.0 2.0 0.00 0.00 0.00 16 1001.6
20260904214602 85 234 0.0 3.0 0.00 0.00 0.00 17 1001.7
20260904213056 84 219 1.0 6.0 0.00 0.00 0.00 14 1001.6
20260904211602 84 236 0.0 11.0 0.00 0.00 0.00 16 1001.5
20260904210053 82 319 0.0 1.0 0.00 0.00 0.00 15 1001.6
20260904204552 83 298 0.0 4.0 0.00 0.00 0.00 14 1001.6
20260904203051 83 232 0.0 6.0 0.00 0.00 0.00 14 1001.6
20260904201548 82 343 0.0 2.0 0.00 0.00 0.00 16 1001.6
20260904200054 82 301 0.0 1.0 0.00 0.00 0.00 15 1001.9
20260904194546 83 270 0.0 5.0 0.00 0.00 0.00 15 1001.9
20260904193047 82 275 0.0 1.0 0.00 0.00 0.00 16 1002.0
20260904191543 81 199 0.0 7.0 0.00 0.00 0.00 17 1002.0
20260904190041 82 319 0.0 1.0 0.00 0.00 0.00 19 1002.2
20260904184555 81 281 0.0 1.0 0.00 0.00 0.00 17 1002.5
20260904183036 82 204 0.0 2.0 0.00 0.00 0.00 16 1002.9